, LA

(GMT )
Sabine 13B

Weather History for KVBS - May, 2014

Change the Weather History Date:

Friday, May 16, 2014

  Actual Average Record
Temperature  
Mean Temperature 71 °F -  
Max Temperature 73 °F - - ()
Min Temperature 69 °F - - ()
Cooling Degree Days 6    
Growing Degree Days 21 (Base 50)    
Moisture  
Dew Point 56 °F    
Average Humidity 57    
Maximum Humidity 64    
Minimum Humidity 46    
Precipitation  
Precipitation 0.00 in - - ()
Sea Level Pressure  
Sea Level Pressure 30.15 in    
Wind  
Wind Speed 10 mph (West)    
Max Wind Speed 21 mph    
Max Gust Speed 25 mph    
Visibility 10 miles    
Events      
T = Trace of Precipitation, MM = Missing Value Source: NWS Daily Summary

Daily Weather History Graph

Daily Weather History Graph

Search for Another Location

Airport or City:

Trip Planner

Search our weather history database for the weather conditions in past years. The results will help you decide how hot, cold, wet, or windy it might be!

Date:

Astronomy

May. 16, 2014 Rise Set
Actual Time 6:21 AM CDT 8:00 PM CDT
Civil Twilight 5:55 AM CDT 8:26 PM CDT
Nautical Twilight 5:24 AM CDT 8:58 PM CDT
Astronomical Twilight 4:51 AM CDT 9:31 PM CDT
Moon 10:08 PM CDT (5/16) 8:04 AM CDT (5/16)
Length of Visible Light 14h 31m
Length of Day
13h 39m
Waning Gibbous, 95% of the Moon is Illuminated
May 16
Waning Gibbous
May 21
Last Quarter
May 28
New
Jun 5
First Quarter
Jun 12
Full

Hourly Weather History & Observations

Time (CDT) Temp. Dew Point Humidity Pressure Visibility Wind Dir Wind Speed Gust Speed Precip Events Conditions
12:15 AM 69.8 °F 51.8 °F 53% 30.20 in 10.0 mi West 12.7 mph 18.4 mph N/A   Clear
12:35 AM 69.8 °F 51.8 °F 53% 30.19 in 10.0 mi West 9.2 mph 15.0 mph N/A   Clear
12:55 AM 71.6 °F 51.8 °F 50% 30.18 in 10.0 mi West 8.1 mph 13.8 mph N/A   Clear
1:15 AM 71.6 °F 50.0 °F 46% 30.17 in 10.0 mi West 9.2 mph - N/A   Clear
1:35 AM 71.6 °F 53.6 °F 53% 30.17 in 10.0 mi Variable 6.9 mph 13.8 mph N/A   Partly Cloudy
1:55 AM 71.6 °F 51.8 °F 50% 30.17 in 10.0 mi West 8.1 mph 16.1 mph N/A   Partly Cloudy
2:15 AM 71.6 °F 55.4 °F 57% 30.16 in 10.0 mi West 8.1 mph - N/A   Clear
2:35 AM 71.6 °F 55.4 °F 57% 30.16 in 10.0 mi West 8.1 mph 15.0 mph N/A   Clear
2:55 AM 71.6 °F 55.4 °F 57% 30.15 in 10.0 mi WSW 10.4 mph 18.4 mph N/A   Clear
3:15 AM 71.6 °F 55.4 °F 57% 30.15 in 10.0 mi WSW 11.5 mph 18.4 mph N/A   Clear
3:35 AM 71.6 °F 55.4 °F 57% 30.15 in 10.0 mi WSW 13.8 mph 21.9 mph N/A   Clear
3:55 AM 69.8 °F 55.4 °F 60% 30.15 in 10.0 mi WSW 11.5 mph 19.6 mph N/A   Clear
4:15 AM 71.6 °F 55.4 °F 57% 30.15 in 10.0 mi WSW 9.2 mph 18.4 mph N/A   Clear
4:35 AM 69.8 °F 55.4 °F 60% 30.15 in 10.0 mi Variable 5.8 mph 16.1 mph N/A   Clear
4:55 AM 69.8 °F 55.4 °F 60% 30.15 in 10.0 mi West 8.1 mph 18.4 mph N/A   Clear
5:15 AM 69.8 °F 55.4 °F 60% 30.15 in 10.0 mi WSW 9.2 mph 17.3 mph N/A   Clear
5:35 AM 69.8 °F 57.2 °F 64% 30.16 in 10.0 mi West 8.1 mph 15.0 mph N/A   Clear
5:55 AM 69.8 °F 57.2 °F 64% 30.16 in 10.0 mi Variable 6.9 mph 15.0 mph N/A   Clear
6:15 AM 69.8 °F 55.4 °F 60% 30.16 in - West 9.2 mph 16.1 mph N/A   Clear
6:35 AM 69.8 °F 57.2 °F 64% 30.16 in 10.0 mi West 10.4 mph - N/A   Clear
6:55 AM 69.8 °F 57.2 °F 64% 30.17 in 10.0 mi West 9.2 mph 16.1 mph N/A   Clear
7:15 AM 71.6 °F 57.2 °F 60% 30.17 in 10.0 mi West 6.9 mph 16.1 mph N/A   Clear
7:35 AM 71.6 °F 57.2 °F 60% 30.17 in 10.0 mi West 10.4 mph - N/A   Clear
7:55 AM 71.6 °F 57.2 °F 60% 30.18 in 10.0 mi West 9.2 mph 17.3 mph N/A   Clear
8:15 AM 71.6 °F 57.2 °F 60% 30.17 in 10.0 mi West 9.2 mph 16.1 mph N/A   Clear
8:35 AM 71.6 °F 55.4 °F 57% 30.18 in 10.0 mi Variable 8.1 mph 17.3 mph N/A   Clear
8:55 AM 73.4 °F 57.2 °F 57% 30.18 in 10.0 mi West 8.1 mph 15.0 mph N/A   Clear
9:15 AM 73.4 °F 55.4 °F 53% 30.18 in 10.0 mi Variable 6.9 mph 13.8 mph N/A   Clear
9:35 AM 73.4 °F 55.4 °F 53% 30.19 in 10.0 mi West 8.1 mph 13.8 mph N/A   Clear
9:55 AM 73.4 °F 57.2 °F 57% 30.19 in 10.0 mi West 8.1 mph 15.0 mph N/A   Clear
10:15 AM 73.4 °F 57.2 °F 57% 30.19 in 10.0 mi West 9.2 mph 20.7 mph N/A   Clear
10:35 AM 73.4 °F 57.2 °F 57% 30.19 in 10.0 mi West 12.7 mph 18.4 mph N/A   Clear
10:55 AM 73.4 °F 57.2 °F 57% 30.19 in 10.0 mi West 12.7 mph 21.9 mph N/A   Clear
11:15 AM 73.4 °F 55.4 °F 53% 30.19 in 10.0 mi West 11.5 mph 18.4 mph N/A   Clear
11:35 AM 73.4 °F 55.4 °F 53% 30.19 in 10.0 mi West 10.4 mph 23.0 mph N/A   Clear
11:55 AM 73.4 °F 55.4 °F 53% 30.19 in 10.0 mi West 18.4 mph - N/A   Clear
12:15 PM 73.4 °F 55.4 °F 53% 30.19 in 10.0 mi West 20.7 mph - N/A   Clear
12:35 PM 73.4 °F 55.4 °F 53% 30.19 in 10.0 mi WNW 15.0 mph 25.3 mph N/A   Clear
12:55 PM 73.4 °F 55.4 °F 53% 30.18 in 10.0 mi West 18.4 mph - N/A   Clear
1:15 PM 71.6 °F 55.4 °F 57% 30.17 in 10.0 mi WNW 18.4 mph 24.2 mph N/A   Clear
1:35 PM 73.4 °F 57.2 °F 57% 30.17 in 10.0 mi WNW 20.7 mph - N/A   Clear
1:55 PM 73.4 °F 53.6 °F 50% 30.17 in 10.0 mi West 13.8 mph 21.9 mph N/A   Clear
2:15 PM 73.4 °F 55.4 °F 53% 30.16 in 10.0 mi West 12.7 mph 21.9 mph N/A   Clear
2:35 PM 73.4 °F 57.2 °F 57% 30.16 in 10.0 mi West 19.6 mph - N/A   Clear
3:15 PM 73.4 °F 57.2 °F 57% 30.14 in 10.0 mi West 13.8 mph 23.0 mph N/A   Clear
3:35 PM 73.4 °F 57.2 °F 57% 30.13 in 10.0 mi West 11.5 mph 20.7 mph N/A   Clear
3:55 PM 73.4 °F 59.0 °F 61% 30.13 in 10.0 mi West 11.5 mph 19.6 mph N/A   Clear
4:15 PM 73.4 °F 57.2 °F 57% 30.11 in 10.0 mi West 13.8 mph 20.7 mph N/A   Clear
4:35 PM 73.4 °F 59.0 °F 61% 30.11 in 10.0 mi Variable 5.8 mph 17.3 mph N/A   Clear
4:55 PM 73.4 °F 57.2 °F 57% 30.10 in 10.0 mi West 8.1 mph 16.1 mph N/A   Clear
5:15 PM 73.4 °F 59.0 °F 61% 30.10 in 10.0 mi West 10.4 mph 17.3 mph N/A   Clear
5:35 PM 73.4 °F 57.2 °F 57% 30.10 in 10.0 mi West 8.1 mph 16.1 mph N/A   Clear
5:55 PM 73.4 °F 57.2 °F 57% 30.09 in 10.0 mi Variable 5.8 mph 15.0 mph N/A   Clear
6:15 PM 73.4 °F 57.2 °F 57% 30.09 in 10.0 mi West 6.9 mph 15.0 mph N/A   Clear
6:35 PM 73.4 °F 55.4 °F 53% 30.09 in 10.0 mi Variable 6.9 mph 12.7 mph N/A   Clear
6:55 PM 73.4 °F 57.2 °F 57% 30.09 in 10.0 mi Variable 6.9 mph 12.7 mph N/A   Clear
7:15 PM 73.4 °F 57.2 °F 57% 30.09 in 10.0 mi Variable 5.8 mph 15.0 mph N/A   Clear
7:35 PM 73.4 °F 57.2 °F 57% 30.09 in 10.0 mi Variable 6.9 mph 15.0 mph N/A   Clear
7:55 PM 73.4 °F 57.2 °F 57% 30.09 in 10.0 mi Variable 6.9 mph 15.0 mph N/A   Clear
8:15 PM 71.6 °F 55.4 °F 57% 30.10 in 10.0 mi WSW 8.1 mph 20.7 mph N/A   Clear
8:35 PM 71.6 °F 55.4 °F 57% 30.10 in 10.0 mi WSW 9.2 mph 18.4 mph N/A   Clear
8:55 PM 71.6 °F 57.2 °F 60% 30.10 in 10.0 mi West 9.2 mph 18.4 mph N/A   Clear
9:15 PM 71.6 °F 57.2 °F 60% 30.10 in 10.0 mi WSW 11.5 mph 18.4 mph N/A   Clear
9:35 PM 71.6 °F 57.2 °F 60% 30.10 in 10.0 mi Variable 6.9 mph 18.4 mph N/A   Clear
9:55 PM 71.6 °F 57.2 °F 60% 30.10 in 10.0 mi WSW 11.5 mph 19.6 mph N/A   Clear
10:15 PM 71.6 °F 57.2 °F 60% 30.10 in 10.0 mi WSW 11.5 mph 21.9 mph N/A   Clear
10:35 PM 71.6 °F 57.2 °F 60% 30.10 in 10.0 mi WSW 10.4 mph 20.7 mph N/A   Clear
10:55 PM 71.6 °F 57.2 °F 60% 30.10 in 10.0 mi WSW 12.7 mph 25.3 mph N/A   Clear
11:15 PM 71.6 °F 59.0 °F 64% 30.11 in 10.0 mi WSW 12.7 mph 21.9 mph N/A   Clear
11:35 PM 71.6 °F 59.0 °F 64% 30.10 in 10.0 mi WSW 13.8 mph 20.7 mph N/A   Clear
11:55 PM 71.6 °F 59.0 °F 64% 30.10 in 10.0 mi WSW 10.4 mph 18.4 mph N/A   Clear